This demonstration page uses our WeatherBlox Daily Observations layout. Learn more.

38.89511, -77.03637

Hourly Observations for September 17, 2019

Temp ( °F °C ) Dew Point ( °F °C ) Humidity (%) Winds ( mph kmh ) Pressure ( in mb ) Visibility ( mi km ) Precip ( " mm )
12:52 am 00:52 Mostly Cloudy 77 25 64 17.8 64 64 ENE 6 9 30 1016 10 16.09344 0 0
1:52 am 01:52 Mostly Cloudy 76 24.4 66 18.9 72 72 NE 8 13 30 1016 10 16.09344 0 0
2:52 am 02:52 Cloudy 76 24.4 65 18.3 69 69 NE 10 17 30 1016 10 16.09344 0 0
3:52 am 03:52 Mostly Cloudy 75 23.9 64 17.8 69 69 NE 9 15 30 1016 10 16.09344 0 0
4:52 am 04:52 Cloudy 74 23.3 65 18.3 74 74 NE 14 22 30 1016 10 16.09344 0 0
5:52 am 05:52 Mostly Cloudy 74 23.3 66 18.9 76 76 NNE 14 22 30 1016 10 16.09344 0 0
6:52 am 06:52 Cloudy 73 22.8 68 20 84 84 NE 14 22 30.03 1017 10 16.09344 0 0
7:19 am 07:19 Cloudy 73 22.8 68 20 84 84 NE 13 20 30.06 1018 10 16.09344 0 0
7:52 am 07:52 Cloudy 74 23.3 68 20 82 82 NNE 13 20 30.06 1018 10 16.09344 0 0
8:48 am 08:48 Cloudy 73 23 66 19 78 78 NE 12 19 30.09 1019 10 16.09344 0 0
8:52 am 08:52 Cloudy 73 22.8 67 19.4 81 81 NE 10 17 30.06 1018 10 16.09344 0 0
9:52 am 09:52 Cloudy 75 23.9 67 19.4 76 76 ENE 13 20 30.09 1019 10 16.09344 0 0
10:29 am 10:29 Cloudy 75 23.9 67 19.4 76 76 ENE 13 20 30.12 1020 10 16.09344 0 0
10:52 am 10:52 Mostly Cloudy 78 25.6 66 18.9 67 67 NE 12 19 30.09 1019 10 16.09344 0 0
11:52 am 11:52 Mostly Cloudy 78 25.6 63 17.2 60 60 NE 14 22 30.12 1020 10 16.09344 0 0
12:52 pm 12:52 Mostly Cloudy 80 26.7 59 15 49 49 NE 10 17 30.12 1020 10 16.09344 0 0
1:52 pm 13:52 Cloudy 79 26.1 60 15.6 52 52 E 9 15 30.09 1019 10 16.09344 0 0
2:52 pm 14:52 Mostly Cloudy 80 26.7 60 15.6 51 51 NE 10 17 30.06 1018 10 16.09344 0 0
3:52 pm 15:52 Mostly Cloudy 80 26.7 60 15.6 51 51 NNE 9 15 30.06 1018 10 16.09344 0 0
4:52 pm 16:52 Mostly Cloudy 82 27.8 59 15 46 46 NE 9 15 30.06 1018 10 16.09344 0 0
5:52 pm 17:52 Partly Cloudy 78 25.6 58 14.4 50 50 E 7 11 30.06 1018 10 16.09344 0 0
6:52 pm 18:52 Mostly Cloudy 77 25 58 14.4 52 52 ESE 9 15 30.06 1018 10 16.09344 0 0
7:52 pm 19:52 Partly Cloudy 75 23.9 58 14.4 55 55 ESE 5 7 30.09 1019 10 16.09344 0 0
8:52 pm 20:52 Partly Cloudy 75 23.9 57 13.9 54 54 Calm 30.09 1019 10 16.09344 0 0
9:52 pm 21:52 Partly Cloudy 73 22.8 58 14.4 59 59 N 3 6 30.09 1019 10 16.09344 0 0
10:52 pm 22:52 Mostly Cloudy 71 21.7 59 15 66 66 SE 8 13 30.12 1020 10 16.09344 0 0
11:52 pm 23:52 Mostly Cloudy 68 20 59 15 73 73 SE 5 7 30.12 1020 10 16.09344 0 0

Powered by AerisWeather